Weather in Mlawa

Poland     53°07′07″N   20°22′02″E
temp.,
°C
wind,
m/s
gust,
m/s
humid.,
%
clouds,
%
prec.,
mm/h
press.,
hPa
HPBL,
m
16 april, fri
fri1623:00+4nne5898100 0.2 1019708
02:00+3nne5998100 1.8 1018638
05:00+3n51098100 1.3 1018615
08:00+3n51097100 1.4 1017484
11:00+5nnw6993100 0.0 1017512
14:00+5nnw5993100 0.3 1017606
17:00+5n4796100 4.4 1017749
20:00+5n4798100 4.6 1018335
17 april, sat
sat1723:00+5n379985 0.0 1018212
02:00+5n4998100 0.1 1018279
05:00+6nne4898100 0.1 1018411
08:00+8ne4789100 0.1 1019607
11:00+8ne3792100 0.1 1019638
14:00+9ene3786100 0.3 1019648
17:00+12e467175 0.2 1019940
20:00+8e3388100 0.7 102035
18 april, sun
sun1823:00+6e229185 0.0 102126
02:00+5ese2295100 0.0 102113
05:00+4ene1194100 0.0 102111
08:00+8ne2486100 0.0 1021205
11:00+7ne2496100 0.4 1021197
14:00+9nne2393100 0.6 1020202
17:00+11e2382100 0.3 1019316
20:00+8ne229578 0.9 102027
19 april, mon
mon1923:00+8ene3694100 0.1 1020139
02:00+8ene3695100 0.1 1020163
05:00+8ene3695100 0.1 1020145
08:00+10ene598849 0.4 1020340
11:00+13e79665 0.7 10191390
14:00+14e785198 0.8 10192048
17:00+12e796343 0.1 10191297
20:00+9e61062100 0.1 1019703
20 april, tue
tue2023:00+8ene4107526 0.0 1019322
02:00+7ne3877100 0.0 1018278
05:00+7nne3773100 0.0 1018193
08:00+7nne3775100 0.0 1017255
11:00+10ne5766100 0.0 10171006
14:00+10e4566100 0.2 10161162
17:00+11n4659100 0.0 10141190
20:00+9nnw3572100 0.1 1014110